Paducah, KY

11:21 PM CST on December 12, 2019 (GMT -0600)
Barkley Regional

Weather History for KPAH - October, 2019

Change the Weather History Date:

Saturday, October 19, 2019

  Actual Average Record
Temperature  
Mean Temperature 57 °F 58 °F  
Max Temperature 75 °F 70 °F 90 °F (1938)
Min Temperature 38 °F 46 °F 32 °F (1990)
Degree Days  
Heating Degree Days 8 8  
Month to date heating degree days 112 113  
Since 1 July heating degree days 112 152  
Cooling Degree Days 0 1  
Month to date cooling degree days 62 30  
Year to date cooling degree days 1856 1530  
Growing Degree Days 6 (Base 50)    
Moisture  
Dew Point 45 °F    
Average Humidity 64    
Maximum Humidity 93    
Minimum Humidity 35    
Precipitation  
Precipitation 0.00 in 0.13 in 1.00 in (1994)
Month to date precipitation 1.46 2.48  
Year to date precipitation 57.59 38.71  
Snow  
Snow 0.00 in 0.00 in T in (1989)
Month to date snowfall 0.0 0.0  
Since 1 July snowfall 0.0 0.0  
Since 1 September snowfall 0.0 0.0  
Snow Depth 0.00 in    
Sea Level Pressure  
Sea Level Pressure 29.82 in    
Wind  
Wind Speed 2 mph (South)    
Max Wind Speed 13 mph    
Max Gust Speed 17 mph    
Visibility 10 miles    
Events      
T = Trace of Precipitation, MM = Missing Value Source: NWS Daily Summary

Daily Weather History Graph

Daily Weather History Graph

Search for Another Location

Airport or City:

Astronomy

Oct. 19, 2019 Rise Set
Actual Time 7:06 AM CDT 6:13 PM CDT
Civil Twilight 6:40 AM CDT 6:39 PM CDT
Nautical Twilight 6:09 AM CDT 7:09 PM CDT
Astronomical Twilight 5:39 AM CDT 7:39 PM CDT
Moon 10:27 PM CDT (10/19) 12:32 PM CDT (10/19)
Length of Visible Light 11h 59m
Length of Day
11h 06m
Waning Gibbous, 69% of the Moon is Illuminated
Oct 19
Waning Gibbous
Oct 21
Last Quarter
Oct 27
New
Nov 4
First Quarter
Nov 12
Full

Hourly Weather History & Observations

Time (CDT) Temp. Dew Point Humidity Pressure Visibility Wind Dir Wind Speed Gust Speed Precip Events Conditions
12:53 AM 46.9 °F 42.1 °F 83% 29.87 in 10.0 mi SE 3.5 mph - N/A   Clear
1:53 AM 45.0 °F 42.1 °F 90% 29.87 in 10.0 mi Calm Calm - N/A   Clear
2:53 AM 41.0 °F 39.0 °F 93% 29.87 in 10.0 mi Calm Calm - N/A   Clear
3:53 AM 41.0 °F 39.0 °F 93% 29.86 in 10.0 mi Calm Calm - N/A   Clear
4:53 AM 41.0 °F 39.0 °F 93% 29.87 in 10.0 mi Calm Calm - N/A   Clear
5:53 AM 41.0 °F 37.9 °F 89% 29.87 in 10.0 mi Calm Calm - N/A   Clear
6:53 AM 39.9 °F 37.9 °F 93% 29.87 in 10.0 mi Calm Calm - N/A   Clear
7:53 AM 44.1 °F 41.0 °F 89% 29.88 in 10.0 mi Calm Calm - N/A   Clear
8:53 AM 54.0 °F 46.0 °F 75% 29.89 in 10.0 mi SE 5.8 mph - N/A   Clear
9:53 AM 61.0 °F 46.0 °F 58% 29.88 in 10.0 mi SSW 5.8 mph - N/A   Clear
10:53 AM 66.0 °F 46.9 °F 50% 29.87 in 7.0 mi Variable 5.8 mph - N/A   Clear
11:53 AM 68.0 °F 46.0 °F 45% 29.84 in 10.0 mi Variable 5.8 mph - N/A   Clear
12:53 PM 71.1 °F 46.0 °F 41% 29.81 in 10.0 mi Variable 5.8 mph - N/A   Clear
1:53 PM 73.0 °F 46.9 °F 39% 29.78 in 10.0 mi Variable 5.8 mph - N/A   Clear
2:53 PM 73.9 °F 45.0 °F 35% 29.76 in 10.0 mi Variable 5.8 mph - N/A   Clear
3:53 PM 73.9 °F 45.0 °F 35% 29.75 in 10.0 mi SSW 6.9 mph - N/A   Clear
4:53 PM 73.0 °F 45.0 °F 37% 29.74 in 10.0 mi South 5.8 mph - N/A   Clear
5:53 PM 68.0 °F 48.0 °F 49% 29.75 in 10.0 mi SSW 3.5 mph - N/A   Clear
6:53 PM 60.1 °F 50.0 °F 69% 29.76 in 10.0 mi Calm Calm - N/A   Clear
7:53 PM 57.9 °F 50.0 °F 75% 29.78 in 10.0 mi Calm Calm - N/A   Clear
8:53 PM 57.9 °F 50.0 °F 75% 29.78 in 10.0 mi South 4.6 mph - N/A   Mostly Cloudy
9:53 PM 55.0 °F 50.0 °F 83% 29.79 in 10.0 mi South 3.5 mph - N/A   Clear
10:53 PM 59.0 °F 54.0 °F 83% 29.80 in 10.0 mi South 3.5 mph - N/A   Clear
11:53 PM 61.0 °F 57.0 °F 87% 29.79 in 10.0 mi Calm Calm - N/A   Overcast